Flag for Mexico Weather past 2 weeks in Cancún, Quintana Roo, Mexico

Now
82 °F

Passing clouds.


Feels Like: 89 °F
Forecast: 81 / 90 °F
Wind: 13 mph from East

Location: Cancun International Airport

Current Time: May 24, 2015 at 11:19:09 PM

Latest Report: May 24, 2015 at 8:42 PM


Visibility: 7 mi

Pressure: 30.01 "Hg

Humidity: 79%

Dew point: 75 °F

Location of CancúnLocation

Historic Weather in Cancún — Graph

°F

Cancún temperature yesterday

Maximum temperature yesterday: 88 °F (at 3:41 PM)
Minimum temperature yesterday: 77 °F (at 5:43 AM)
Average temperature yesterday: 83 °F

Past Weeks' High & Low Weather Summary

 TemperatureHumidityPressure
High88 °F (May 13, 12:40 PM)100% (May 20, 6:45 AM)30.11 "Hg (May 20, 6:45 AM)
Low72 °F (May 22, 4:47 AM)52% (May 21, 3:45 PM)29.95 "Hg (May 20, 3:46 PM)
Average82 °F76%30.02 "Hg
* Reported May 9 8:40 PM — May 24 8:42 PM, Cancún, Weather by CustomWeather, © 2015

Note: Actual official high and low records may vary slightly from our data, if they occured in-between our weather recording intervals... More about our weather records

Advertising

Cancún weather history for previous 24 hours

 ConditionsComfort  
Time TempWeatherWind HumidityBarometerVisibility
8:42 PM
Sun, May 24
82 °FPassing clouds.13 mph79%30.01 "Hg7 mi
7:46 PM82 °FScattered clouds.10 mph79%30.00 "Hg7 mi
6:49 PM84 °FScattered clouds.10 mph74%29.99 "Hg7 mi
5:47 PM84 °FScattered clouds.12 mph74%29.98 "Hg7 mi
3:46 PM86 °FBroken clouds.17 mph70%30.01 "Hg7 mi
2:43 PM86 °FBroken clouds.18 mph66%30.01 "Hg7 mi
12:42 PM88 °FBroken clouds.14 mph62%30.04 "Hg7 mi
11:48 AM86 °FPartly sunny.14 mph70%30.05 "Hg7 mi
10:40 AM88 °FPartly sunny.10 mph62%30.06 "Hg7 mi
9:42 AM86 °FPartly sunny.10 mph66%30.06 "Hg7 mi
8:40 AM84 °FPartly sunny.10 mph70%30.05 "Hg7 mi
7:45 AM82 °FBroken clouds.10 mph70%30.04 "Hg7 mi
6:45 AM82 °FPartly cloudy.9 mph74%30.03 "Hg7 mi
5:46 AM82 °FPassing clouds.8 mph79%30.01 "Hg7 mi
4:47 AM81 °FPassing clouds.7 mph89%30.01 "Hg7 mi
3:48 AM81 °FPassing clouds.6 mph89%30.01 "Hg7 mi
2:43 AM82 °FPassing clouds.6 mph84%30.02 "Hg7 mi
1:45 AM82 °FPassing clouds.6 mph84%30.03 "Hg7 mi
12:45 AM82 °FPassing clouds.6 mph84%30.06 "Hg7 mi
11:46 PM
Sat, May 23
82 °FPassing clouds.7 mph84%30.06 "Hg7 mi
Weather by CustomWeather, © 2015

See weather overviewHow to use our weather pages